#timestamp,LO_Frequency,Hit,StdDev 
1628334015.5,286046997.0,N
1628334035.3,286046996.9,N
1628334055.1,286046996.5,N
1628334075.9,286046999.6,N
1628334095.7,286046999.2,N
1628334115.5,286046999.5,N
1628334135.4,286046997.2,N
1628334155.2,286046997.1,N
1628334175.1,286046999.3,N
1628334176.0,286046999.3,N
1628334195.8,286046998.6,N
1628334215.6,286046998.2,N
1628334235.5,286046998.3,N
1628334255.3,286046999.0,N
1628334275.1,286046999.0,N
1628334295.9,286046999.4,N
1628334315.7,286046998.4,N
1628334335.6,286046999.5,N
1628334355.4,286047000.7,N
1628334375.2,286046999.1,N
1628334395.1,286046998.5,N
1628334396.0,286046998.5,N
1628334415.8,286046997.3,N
1628334435.6,286046998.9,N
1628334455.5,286046997.2,N
1628334475.3,286046996.7,N
1628334495.2,286046998.9,N
1628334515.9,286046998.3,N
1628334535.7,286046998.7,N
1628334555.6,286046999.3,N
1628334575.4,286046999.4,N
1628334595.3,286046999.1,N
1628334615.1,286046999.3,N
1628334616.0,286046999.3,N
1628334635.8,286046998.3,N
1628334655.7,286046998.3,N
1628334675.5,286046998.3,N
1628334695.3,286046998.8,N
1628334715.2,286046999.4,N
1628334735.0,286046999.1,N
1628334735.9,286046999.1,N
1628334755.8,286047000.7,N
1628334775.6,286046999.2,N
1628334795.4,286046999.1,N
1628334815.3,286046999.6,N
1628334835.1,286046997.7,N
1628334855.9,286046995.0,Y
1628334875.7,286046994.9,P
1628334895.5,286046995.5,N
1628334915.4,286046996.0,N
1628334935.2,286046995.8,N
1628334955.0,286046995.8,Y
1628334955.9,286046995.8,P
1628334975.8,286046998.6,P
1628334995.6,286046998.4,N
1628335015.5,286047001.1,N
1628335035.3,286047001.0,N
1628335055.1,286047000.5,N
1628335075.9,286047002.8,N
1628335095.7,286047001.8,N
1628335115.5,286047001.9,N
1628335135.4,286047001.9,N
1628335155.2,286046999.9,N
1628335175.0,286047000.6,N
1628335176.0,286047000.6,N
1628335195.8,286046998.1,N
1628335215.6,286047000.7,N
1628335235.5,286047000.5,N
1628335255.3,286047002.6,N
1628335275.1,286047002.6,N
1628335295.9,286047001.4,N
1628335315.7,286047005.9,Y
1628335335.5,286047003.6,P
1628335355.4,286047003.8,N
1628335375.2,286047004.0,N
1628335395.1,286047004.4,N
1628335396.0,286047004.4,N
1628335415.8,286047004.3,Y
1628335435.6,286047000.8,P
1628335455.5,286046998.6,N
1628335475.3,286046996.5,N
1628335495.1,286046997.5,N
1628335515.9,286046994.9,N
1628335535.7,286046997.9,N
1628335555.6,286046995.0,N
1628335575.4,286046998.0,N
1628335595.2,286046995.6,N
1628335615.1,286046993.4,N
1628335616.0,286046993.4,N
1628335635.8,286046993.4,N
1628335655.6,286046993.3,N
1628335675.5,286046992.1,N
1628335695.3,286046992.0,N
1628335715.2,286046994.4,N
1628335735.9,286046993.9,N
1628335755.7,286046996.2,N
1628335775.6,286046994.1,N
1628335795.4,286046994.5,N
1628335815.2,286046995.5,N
1628335835.1,286046995.2,N
1628335836.0,286046995.2,N
1628335855.8,286046995.6,N
1628335875.7,286046995.5,N
1628335895.5,286046995.2,N
1628335915.3,286046995.4,N
1628335935.2,286046995.3,N
1628335955.0,286046995.6,N
1628335955.9,286046995.6,N
1628335975.7,286046995.5,N
1628335995.6,286046995.6,N
1628336015.4,286046997.6,N
1628336035.3,286046995.3,Y
1628336055.1,286047001.0,P
1628336056.0,286047001.0,N
1628336075.8,286046999.9,N
1628336095.7,286047001.0,N
1628336115.5,286047002.7,N
1628336135.4,286047001.3,N
1628336155.2,286046999.8,N
1628336175.0,286047000.1,N
1628336175.9,286047000.1,N
1628336195.8,286046999.9,N
1628336215.6,286047000.6,N
1628336235.4,286047000.1,N
1628336255.3,286046999.9,N
1628336275.1,286047000.7,N
1628336295.9,286047000.7,N
1628336315.7,286046999.6,N
1628336335.5,286046998.8,N
1628336355.4,286046998.7,N
1628336375.2,286046998.2,N
1628336395.0,286047000.8,N
1628336396.0,286047000.8,N
1628336415.8,286047000.6,N
1628336435.6,286047000.1,N
1628336455.5,286047002.0,N
1628336475.3,286047001.9,N
1628336495.1,286047001.3,N
1628336515.9,286047001.9,N
1628336535.7,286047002.7,N
1628336555.6,286047002.5,N
1628336575.4,286047002.7,N
1628336595.2,286047002.5,N
1628336615.1,286047004.1,Y
1628336616.0,286047004.1,P
1628336635.8,286047003.3,N
1628336655.7,286047004.8,P
1628336675.5,286047004.9,Y
1628336695.3,286047001.8,P
1628336715.2,286047004.2,P
1628336735.0,286047004.4,P
1628336735.9,286047004.4,Y
1628336755.7,286047000.6,P
1628336775.6,286047000.6,N
1628336795.4,286047000.5,N
1628336815.3,286047000.4,N
1628336835.1,286047000.1,N
1628336836.0,286047000.1,N
1628336855.8,286047002.2,N
1628336875.7,286046999.9,N
1628336895.5,286047002.6,N
1628336915.4,286047000.2,N
1628336935.2,286046998.7,N
1628336955.0,286046998.1,N
1628336955.9,286046998.1,N
1628336975.8,286046999.3,N
1628336995.6,286046999.2,N
1628337015.4,286046996.9,N
1628337035.3,286046999.6,N
1628337055.1,286046996.6,N
1628337075.9,286046996.6,N
1628337095.7,286046997.1,N
1628337115.5,286046998.9,N
1628337135.4,286046998.5,N
1628337155.2,286046998.6,N
1628337175.0,286047000.9,N
1628337175.9,286047000.9,N
1628337195.8,286047000.0,N
1628337215.6,286047000.6,N
1628337235.5,286047000.4,N
1628337255.3,286046999.9,N
1628337275.1,286046998.2,N
1628337295.9,286046999.0,N
1628337315.7,286046999.2,N
1628337335.6,286046996.5,N
1628337355.4,286046999.1,N
1628337375.2,286046998.7,N
1628337395.1,286046998.4,N
1628337396.0,286046998.4,N
1628337415.8,286046998.8,N
1628337435.6,286046998.3,N
1628337455.5,286046999.4,N
1628337475.3,286046999.0,N
1628337495.2,286046998.6,N
1628337515.9,286046998.1,N
1628337535.7,286047000.7,N
1628337555.6,286047000.9,N
1628337575.4,286046998.1,N
1628337595.2,286046998.3,N
